This demonstration page uses our WeatherBlox Daily Observations layout. Learn more.

Left ArrowRight Arrow

36.17497, -115.13722

Hourly Observations for July 23, 2017

Temp ( °F °C ) Dew Point ( °F °C ) Humidity (%) Winds ( mph kmh ) Pressure ( in mb ) Visibility ( mi km ) Precip ( " mm )
12:53 am 00:53 Clear 95 35 52 11.1 23 23 SE 8 13 29.79 1009 10 16 N/A
1:53 am 01:53 Clear 92 33.3 56 13.3 30 30 ESE 10 17 29.79 1009 10 16 N/A
2:53 am 02:53 Clear 91 32.8 57 13.9 32 32 N 6 9 29.78 1008 10 16 N/A
3:53 am 03:53 Clear 89 31.7 57 13.9 34 34 NNW 5 7 29.78 1008 10 16 N/A
4:53 am 04:53 Clear 88 31.1 57 13.9 35 35 NNE 3 6 29.78 1009 10 16 N/A
5:53 am 05:53 Sunny 88 31.1 55 12.8 33 33 N N/A 29.80 1009 10 16 N/A
6:53 am 06:53 Sunny 90 32.2 55 12.8 31 31 E 3 6 29.81 1010 10 16 N/A
7:53 am 07:53 Sunny 91 32.8 57 13.9 32 32 E 5 7 29.83 1010 10 16 N/A
8:53 am 08:53 Sunny 93 33.9 57 13.9 30 30 SE 8 13 29.83 1010 10 16 N/A
9:53 am 09:53 Sunny 96 35.6 56 13.3 26 26 S 7 11 29.83 1010 10 16 N/A
10:53 am 10:53 Sunny 99 37.2 53 11.7 21 21 E 5 7 29.82 1010 10 16 N/A
11:53 am 11:53 Sunny 100 37.8 53 11.7 21 21 undefined N/A 29.81 1010 10 16 N/A
12:53 pm 12:53 Sunny 102 38.9 49 9.4 17 17 VRB 3 6 29.78 1008 10 16 N/A
1:53 pm 13:53 Sunny 105 40.6 51 10.6 16 16 SSW 9 15 29.74 1007 10 16 N/A
2:53 pm 14:53 Sunny 106 41.1 48 8.9 14 14 SW 8 13 29.71 1006 10 16 N/A
3:53 pm 15:53 Sunny 107 41.7 49 9.4 14 14 VRB 3 6 29.69 1005 10 16 N/A
4:53 pm 16:53 Sunny 107 41.7 45 7.2 12 12 S 6 9 29.67 1005 10 16 N/A
5:53 pm 17:53 Sunny 107 41.7 52 11.1 16 16 SE 13 20 29.65 1004 10 16 N/A
6:53 pm 18:53 Sunny 106 41.1 49 9.4 15 15 SE 12 19 29.66 1004 10 16 N/A
7:53 pm 19:53 Sunny 101 38.3 55 12.8 22 22 SE 18 30 29.69 1005 10 16 N/A
8:53 pm 20:53 Clear 97 36.1 58 14.4 27 27 SE 20 31 29.73 1007 10 16 N/A
9:53 pm 21:53 Clear 96 35.6 58 14.4 28 28 SE 10 17 29.77 1008 10 16 N/A
10:53 pm 22:53 Clear 96 35.6 57 13.9 27 27 SSE 10 17 29.78 1008 10 16 N/A
11:53 pm 23:53 Clear 94 34.4 56 13.3 28 28 S 14 22 29.78 1009 10 16 N/A

Powered by AerisWeather